Waarnemingen

Advertentie
Mijn weer
Manresa, Spanje (8174): temperatuur & dauwpunt: 22.05.2018 12:00:00 - 28.05.2018 12:00:00 (CEST)Manresa, Spanje (8174): windsnelheid & windstoten: 22.05.2018 12:00:00 - 28.05.2018 12:00:00 (CEST)Manresa, Spanje (8174): windrichting: 22.05.2018 12:00:00 - 28.05.2018 12:00:00 (CEST)Manresa, Spanje (8174): luchtdruk: 22.05.2018 12:00:00 - 28.05.2018 12:00:00 (CEST)Manresa, Spanje (8174): zicht: 22.05.2018 12:00:00 - 28.05.2018 12:00:00 (CEST)Manresa, Spanje (8174): Zonneschijnduur: 22.05.2018 12:00:00 - 28.05.2018 12:00:00 (CEST)Manresa, Spanje (8174): neerslag: 22.05.2018 12:00:00 - 28.05.2018 12:00:00 (CEST)
Datum & Tijd tt [°C] td [°C] ff [km/u] ff [kn] fx [km/u] fx [kn] dd ppp [hPa] vv [km] sd [min] rr [mm]
28.05.2018 12:00:00 - - - - - - - - - - -
28.05.2018 11:00:00 21,1 14,5 5 3 13 7 ZW 1012,3 20 11 0,0
28.05.2018 10:00:00 20,1 13,1 6 3 11 6 ZZO 1012,7 20 39 0,0
28.05.2018 09:00:00 17,1 12,4 3 1 9 5 N 1012,5 14 0 0,0
28.05.2018 08:00:00 - - - - - - - - - - -
28.05.2018 07:00:00 15,8 12,0 1 1 7 4 NNW 1012,5 20 0 0,0
28.05.2018 06:00:00 15,5 12,1 1 1 8 5 N 1012,5 10 0 0,0
28.05.2018 05:00:00 15,3 11,7 1 1 8 4 WNW 1012,8 20 0 0,0
28.05.2018 04:00:00 14,9 12,7 3 1 7 4 W 1012,8 20 0 0,0
28.05.2018 03:00:00 15,4 12,3 4 2 9 5 ZZW 1012,5 20 0 0,0
28.05.2018 02:00:00 16,4 13,5 5 3 10 5 ZW 1012,4 18 0 -
28.05.2018 01:00:00 17,3 13,5 4 2 8 4 ZZW 1012,8 20 0 0,0
28.05.2018 00:00:00 18,3 13,4 2 1 9 5 Z 1012,7 20 0 0,0
27.05.2018 23:00:00 18,9 12,2 2 1 7 4 WZW 1012,6 20 0 0,0
27.05.2018 22:00:00 19,7 13,7 2 1 9 5 NO 1012,0 20 0 0,0
27.05.2018 21:00:00 20,5 13,7 8 4 16 9 ZZW 1011,7 20 0 0,0
27.05.2018 20:00:00 21,2 14,3 8 5 21 12 ZZW 1011,4 20 0 -
27.05.2018 19:00:00 22,7 14,8 12 6 32 17 Z 1010,5 20 0 0,0
27.05.2018 18:00:00 24,9 15,0 16 9 28 15 ZZW 1009,6 20 42 0,0
27.05.2018 17:00:00 26,6 14,7 12 6 22 12 Z 1009,2 20 54 0,0
27.05.2018 16:00:00 26,5 13,9 11 6 23 13 Z 1009,6 20 56 0,0
27.05.2018 15:00:00 26,2 13,7 11 6 22 12 ZZW 1010,0 20 49 0,0
27.05.2018 14:00:00 26,5 13,0 8 4 23 12 ZZW 1010,4 20 60 -
27.05.2018 13:00:00 24,9 12,1 6 3 14 7 ONO 1011,2 20 60 0,0
27.05.2018 12:00:00 23,2 11,9 4 2 10 5 ONO 1012,1 20 55 0,0
27.05.2018 11:00:00 21,0 11,9 3 2 9 5 N 1012,8 20 43 0,0
27.05.2018 10:00:00 17,7 12,5 3 2 8 4 NNW 1013,5 20 25 0,0
27.05.2018 09:00:00 15,8 12,2 3 2 5 3 NO 1013,5 20 13 0,0
27.05.2018 08:00:00 14,5 11,7 3 2 6 3 ZW 1013,5 16 2 -
27.05.2018 07:00:00 14,0 11,6 1 1 5 3 NNO 1013,2 20 0 0,0
27.05.2018 06:00:00 14,2 11,6 3 2 6 3 ZW 1013,2 20 0 0,0
27.05.2018 05:00:00 14,2 11,7 3 2 7 4 W 1013,2 20 0 0,0
27.05.2018 04:00:00 14,9 11,9 2 1 5 3 NNO 1013,3 20 0 0,0
27.05.2018 03:00:00 15,7 13,1 4 2 9 5 W 1014,0 20 0 0,0
27.05.2018 02:00:00 16,8 12,7 2 1 11 6 O 1014,5 20 0 -
27.05.2018 01:00:00 17,7 11,9 8 4 13 7 ONO 1014,9 20 0 0,0
27.05.2018 00:00:00 18,3 13,4 5 3 10 5 O 1015,0 20 0 0,0
26.05.2018 23:00:00 19,0 13,9 4 2 9 5 OZO 1015,2 20 0 0,0
26.05.2018 22:00:00 19,5 13,9 4 2 10 5 ZZO 1014,2 20 0 0,0
26.05.2018 21:00:00 20,5 13,7 3 1 12 6 Z 1013,4 20 0 0,0
26.05.2018 20:00:00 21,7 13,9 5 3 13 7 Z 1013,1 20 12 -
26.05.2018 19:00:00 23,7 14,1 10 6 21 12 Z 1012,9 20 60 0,0
26.05.2018 18:00:00 24,0 12,0 9 5 21 12 ZZO 1013,3 20 15 0,0
26.05.2018 17:00:00 24,4 11,7 11 6 24 13 ZZO 1013,4 20 25 0,0
26.05.2018 16:00:00 25,3 9,9 10 6 25 13 ZZO 1013,6 20 34 0,0
26.05.2018 15:00:00 24,7 10,2 10 5 27 15 ZO 1014,0 20 9 0,0
26.05.2018 14:00:00 23,7 12,3 10 5 31 17 O 1014,5 20 14 -
26.05.2018 13:00:00 23,1 11,8 13 7 40 21 O 1014,4 20 20 0,0
26.05.2018 12:00:00 24,3 13,6 8 5 26 14 OZO 1014,0 20 40 0,0
26.05.2018 11:00:00 22,2 13,6 8 4 20 11 ONO 1014,2 20 56 0,0
26.05.2018 10:00:00 20,9 13,6 5 3 9 5 NNO 1015,0 20 60 0,0
26.05.2018 09:00:00 17,6 12,5 4 2 8 5 W 1015,8 20 28 0,0
26.05.2018 08:00:00 - - - - - - - - - - -
26.05.2018 07:00:00 15,0 12,1 5 3 11 6 ONO 1015,2 20 0 0,0
26.05.2018 06:00:00 14,7 10,9 3 1 9 5 ZZW 1015,2 20 0 0,0
26.05.2018 05:00:00 14,7 10,3 1 1 8 5 W 1014,9 20 0 0,0
26.05.2018 04:00:00 15,3 11,1 3 1 10 5 N 1014,2 20 0 0,0
26.05.2018 03:00:00 15,5 11,1 4 2 9 5 ZO 1014,9 20 0 0,0
26.05.2018 02:00:00 16,1 9,3 3 1 5 3 NNO 1014,8 20 0 -
26.05.2018 01:00:00 16,8 8,5 3 2 6 3 W 1015,1 20 0 0,0
26.05.2018 00:00:00 18,2 7,6 2 1 8 4 ZZO 1014,8 20 0 0,0
25.05.2018 23:00:00 19,2 6,7 6 3 18 10 ZO 1014,7 20 0 0,0
25.05.2018 22:00:00 20,2 6,5 10 5 22 12 ONO 1013,8 20 0 0,0
25.05.2018 21:00:00 21,4 6,5 10 5 24 13 ONO 1013,1 20 9 0,0
25.05.2018 20:00:00 22,8 7,0 11 6 21 12 O 1012,6 20 8 -
25.05.2018 19:00:00 24,0 7,1 9 5 17 9 ONO 1012,4 20 0 0,0
25.05.2018 18:00:00 24,7 6,4 10 5 25 13 ZO 1012,7 20 50 0,0
25.05.2018 17:00:00 26,0 7,6 9 5 23 12 O 1012,9 20 60 0,0
25.05.2018 16:00:00 25,5 7,1 11 6 24 13 ONO 1013,3 20 53 0,0
25.05.2018 15:00:00 25,8 8,8 8 5 20 11 ZO 1013,9 20 47 0,0
25.05.2018 14:00:00 24,9 6,1 12 6 25 13 ZO 1014,4 20 58 -
25.05.2018 13:00:00 23,6 12,2 5 3 17 9 Z 1014,6 20 60 0,0
25.05.2018 12:00:00 20,4 13,4 7 4 11 6 ONO 1015,4 20 40 0,0
25.05.2018 11:00:00 16,9 12,4 4 2 12 7 NO 1016,5 19 3 0,2
25.05.2018 10:00:00 16,1 12,6 4 2 10 5 WNW 1016,5 20 21 0,0
25.05.2018 09:00:00 15,2 11,0 3 2 11 6 NO 1016,7 17 21 0,0
25.05.2018 08:00:00 13,7 10,6 4 2 10 6 OZO 1017,4 16 0 -
25.05.2018 07:00:00 12,8 10,2 5 3 9 5 NO 1016,7 19 0 0,0
25.05.2018 06:00:00 12,6 10,2 4 2 8 5 NW 1016,3 12 0 0,0
25.05.2018 05:00:00 12,9 9,9 5 3 9 5 NNO 1016,1 20 0 0,0
25.05.2018 04:00:00 13,2 10,2 4 2 8 5 NNO 1016,7 20 0 0,0
25.05.2018 03:00:00 14,0 10,8 2 1 10 6 NW 1016,8 19 0 0,0
25.05.2018 02:00:00 15,0 11,2 4 2 9 5 NNO 1016,9 20 0 -
25.05.2018 01:00:00 15,7 10,9 3 2 7 4 NNO 1017,0 20 0 0,0
25.05.2018 00:00:00 17,1 10,9 4 2 12 7 WZW 1017,0 20 0 0,0
24.05.2018 23:00:00 18,4 11,4 6 3 11 6 NO 1016,6 20 0 0,0
24.05.2018 22:00:00 19,6 10,5 3 1 21 11 OZO 1016,2 20 0 0,0
24.05.2018 21:00:00 21,7 9,3 11 6 28 15 Z 1015,4 20 49 0,0
24.05.2018 20:00:00 24,0 7,1 12 7 26 14 Z 1014,7 20 60 -
24.05.2018 19:00:00 24,8 7,8 14 8 32 17 Z 1014,2 20 58 0,0
24.05.2018 18:00:00 26,7 9,6 16 9 31 17 Z 1014,0 20 60 0,0
24.05.2018 17:00:00 27,2 9,9 14 8 27 15 Z 1014,0 20 60 0,0
24.05.2018 16:00:00 27,9 8,3 12 6 21 12 Z 1014,3 20 59 0,0
24.05.2018 15:00:00 27,3 9,6 7 4 21 12 ZZO 1014,8 18 60 0,0
24.05.2018 14:00:00 26,3 10,9 6 4 16 9 Z 1015,3 15 60 -
24.05.2018 13:00:00 25,1 10,9 8 4 16 8 Z 1016,4 16 60 0,0
24.05.2018 12:00:00 23,1 12,4 3 2 12 6 N 1016,9 14 60 0,0
24.05.2018 11:00:00 20,6 13,6 5 3 9 5 W 1017,4 14 60 0,0
24.05.2018 10:00:00 18,1 13,2 3 2 10 5 O 1018,1 12 51 0,0
24.05.2018 09:00:00 15,9 12,4 4 2 9 5 NO 1018,7 10 19 0,0
24.05.2018 08:00:00 13,7 11,2 4 2 12 6 NNO 1018,7 13 0 -
24.05.2018 07:00:00 13,3 11,6 5 3 7 4 NNO 1018,3 12 0 0,0
24.05.2018 06:00:00 13,5 11,7 1 1 5 3 Z 1018,0 10 0 0,0
24.05.2018 05:00:00 14,1 11,8 2 1 5 3 W 1017,9 9 0 0,0
24.05.2018 04:00:00 14,7 11,9 4 2 10 5 O 1017,8 16 0 0,0
24.05.2018 03:00:00 14,9 12,4 1 1 8 5 ONO 1018,0 13 0 0,0
24.05.2018 02:00:00 15,5 12,4 3 1 7 4 WNW 1018,1 14 0 -
24.05.2018 01:00:00 16,0 13,2 3 1 9 5 N 1018,5 16 0 0,0
24.05.2018 00:00:00 17,1 13,7 3 2 9 5 Z 1018,7 13 0 0,0
23.05.2018 23:00:00 17,9 13,4 3 2 15 8 W 1018,4 16 0 0,0
23.05.2018 22:00:00 19,4 12,8 7 4 16 9 Z 1017,5 20 0 0,0
23.05.2018 21:00:00 20,8 12,5 9 5 19 10 Z 1016,5 20 8 0,0
23.05.2018 20:00:00 22,7 11,1 10 5 23 12 Z 1015,5 20 47 -
23.05.2018 19:00:00 23,8 10,4 10 5 27 14 Z 1015,1 20 55 0,0
23.05.2018 18:00:00 24,9 11,4 14 8 27 15 Z 1014,6 20 60 0,0
23.05.2018 17:00:00 25,4 10,8 13 7 31 17 Z 1014,9 19 56 0,0
23.05.2018 16:00:00 24,7 12,3 13 7 27 14 Z 1015,0 16 30 0,0
23.05.2018 15:00:00 26,0 11,7 13 7 24 13 ZZW 1015,4 20 60 0,0
23.05.2018 14:00:00 24,9 11,4 10 6 25 14 Z 1016,2 20 60 -
23.05.2018 13:00:00 23,9 11,6 8 4 17 9 Z 1016,6 20 60 0,0
23.05.2018 12:00:00 22,0 12,0 5 3 10 6 WZW 1017,1 20 60 0,0
23.05.2018 11:00:00 19,7 13,0 4 2 9 5 N 1017,6 20 60 0,0
23.05.2018 10:00:00 17,3 12,8 3 2 6 3 N 1018,0 13 60 0,0
23.05.2018 09:00:00 14,3 11,7 2 1 8 5 W 1018,4 9 58 0,0
23.05.2018 08:00:00 12,5 11,2 3 2 8 4 NNO 1018,4 8 8 -
23.05.2018 07:00:00 11,4 10,4 3 1 9 5 O 1018,2 1,0 0 0,0
23.05.2018 06:00:00 11,4 10,3 3 2 7 4 W 1018,0 6 0 0,0
23.05.2018 05:00:00 11,9 11,0 3 1 5 3 W 1017,8 6 0 0,0
23.05.2018 04:00:00 12,3 11,0 1 1 5 3 ONO 1017,6 7 0 0,0
23.05.2018 03:00:00 12,9 11,4 3 2 6 4 WZW 1017,8 9 0 0,0
23.05.2018 02:00:00 13,4 11,8 3 1 7 4 NO 1017,8 16 0 -
23.05.2018 01:00:00 13,6 12,0 1 1 6 3 N 1017,7 18 0 0,0
23.05.2018 00:00:00 14,1 12,1 2 1 7 4 ZW 1017,3 20 0 0,0
22.05.2018 23:00:00 15,3 13,0 3 1 6 3 NNO 1016,8 20 0 0,0
22.05.2018 22:00:00 16,2 12,7 3 2 7 4 ZZW 1016,0 20 0 0,0
22.05.2018 21:00:00 17,6 12,1 4 2 10 5 Z 1015,4 20 35 0,0
22.05.2018 20:00:00 18,9 12,2 4 2 11 6 ZZW 1015,1 20 60 -
22.05.2018 19:00:00 18,8 14,2 6 3 22 12 WZW 1014,7 20 53 0,4
22.05.2018 18:00:00 17,7 13,3 9 5 20 11 Z 1014,6 11 0 0,0
22.05.2018 17:00:00 22,1 11,2 9 5 22 12 N 1013,2 20 45 0,0
22.05.2018 16:00:00 23,1 11,4 5 3 14 7 ZW 1012,7 20 32 0,0
22.05.2018 15:00:00 22,9 13,1 7 4 15 8 O 1012,9 20 50 0,0
22.05.2018 14:00:00 20,6 13,6 6 4 13 7 ONO 1013,5 15 31 -
22.05.2018 13:00:00 18,0 13,5 5 3 11 6 ONO 1014,3 16 0 0,0
22.05.2018 12:00:00 16,8 13,0 5 3 11 6 NO 1014,6 20 4 0,0

tt = temperatuur
td = dauwpunt
ff = windsnelheid
fx = windstoten
dd = windrichting
ppp = luchtdruk
vv = zicht
sd = Zonneschijnduur
rr = neerslag

Weerstations in de omgeving